Location: Unspecified
(0.0000°N, 0.0000°E)
Time: 16:22:51
(UTC+00:00)

Vanguard 2 Rocket - Pass Details

Date: 20 November 2019
Orbit: 554 x 3326 km, 32.9° (Epoch: 13 December)

Event Time Altitude Azimuth Distance (km) Brightness Sun altitude
Rises 15:22:52 0° 228° (SW) 7,219 12.4 33.3°
Reaches altitude 10° 15:31:38 10° 208° (SSW) 5,843 11.9 31.3°
Maximum altitude 15:40:24 15° 177° (S) 4,793 10.9 29.3°
Drops below altitude 10° 15:47:29 10° 145° (SE) 4,606 10.4 27.6°
Sets 15:52:47 0° 123° (ESE) 5,036 10.4 26.4°
